1508076001.03,17462,16.44,74914.0,8.97,-22.03,-22.77,0,*7E
1508076002.3,17463,16.44,74910.5,8.97,-21.97,-22.77,0,*71
1508076003.52,17464,16.44,74912.0,8.97,-21.73,-22.53,0,*7A
1508076004.76,17465,16.44,74910.8,8.99,-23.29,-24.11,0,*78
1508076006.03,17466,16.44,74914.8,8.97,-23.29,-24.11,0,*75
1508076007.25,17467,16.44,74914.0,8.99,-22.83,-23.49,0,*71
1508076008.52,17468,16.44,74916.8,8.97,-22.47,-23.19,0,*7D
1508076009.75,17469,16.44,74922.5,8.97,-22.37,-23.13,0,*71
1508076010.96,17470,16.44,74918.8,8.99,-23.65,-24.57,0,*76
1508076012.16,17471,16.44,74888.0,8.99,-23.75,-24.47,0,*77
1508076013.44,17472,16.44,74884.3,8.97,-22.77,-23.49,0,*70
1508076014.7,17473,16.44,74892.0,8.97,-24.25,-25.23,0,*7A
1508076015.89,17474,16.44,74898.3,8.95,-26.49,-27.13,0,*76
1508076017.09,17475,16.44,74892.5,8.91,-25.49,-26.49,0,*7E
1508076018.36,17476,16.44,74894.3,8.89,-27.19,-28.21,0,*73
1508076019.61,17477,16.44,74904.0,8.85,-27.07,-27.99,0,*7D
1508076020.82,17478,16.44,74906.8,8.79,-27.03,-27.89,0,*74
1508076022.06,17479,16.44,74906.3,8.77,-26.23,-27.19,0,*71
1508076023.32,17480,16.44,74912.0,8.75,-24.41,-25.35,0,*7F
1508076024.59,17481,16.44,74918.0,8.75,-23.49,-24.41,0,*73
1508076025.83,17482,16.44,74918.0,8.73,-23.29,-24.15,0,*71
1508076027.05,17483,16.44,74922.5,8.73,-22.31,-23.13,0,*79
1508076028.25,17484,16.44,74908.8,8.73,-22.03,-22.83,0,*77
1508076029.49,17485,16.44,74916.3,8.75,-22.03,-22.77,0,*7B
1508076030.75,17486,16.44,74918.0,8.77,-21.83,-22.63,0,*74
1508076031.95,17487,16.44,74916.5,8.79,-22.41,-23.39,0,*78
1508076033.18,17488,16.44,74926.5,8.79,-23.03,-23.75,0,*78
1508076034.41,17489,16.44,74926.3,8.79,-22.93,-23.85,0,*7E
1508076035.64,17490,16.44,74924.0,8.79,-22.77,-23.59,0,*7D
1508076036.84,17491,16.44,74924.3,8.79,-22.93,-23.75,0,*78
1508076038.05,17492,16.44,74918.0,8.79,-22.93,-23.75,0,*7B
1508076039.29,17493,16.44,74920.3,8.81,-24.31,-25.13,0,*75
1508076040.52,17494,16.44,74930.3,8.77,-24.57,-25.49,0,*74
1508076041.76,17495,16.44,74922.5,8.77,-23.75,-24.57,0,*7C
1508076043.01,17496,16.44,74926.0,8.77,-23.65,-24.61,0,*7B
1508076044.26,17497,16.44,74926.0,8.75,-23.89,-24.71,0,*7B
1508076045.5,17498,16.44,74920.8,8.71,-23.69,-24.57,0,*7A
1508076046.72,17499,16.44,74920.0,8.73,-23.13,-23.99,0,*71
1508076047.94,17500,16.44,74926.5,8.73,-23.53,-24.31,0,*71
1508076049.19,17501,16.44,74922.3,8.75,-23.13,-23.95,0,*7B
1508076050.44,17502,16.44,74924.5,8.71,-24.35,-25.29,0,*7E
1508076051.71,17503,16.44,74918.8,8.71,-23.85,-24.67,0,*78
1508076052.92,17504,16.44,74918.0,8.69,-23.75,-24.57,0,*7A
1508076054.14,17505,16.44,74908.5,8.69,-23.65,-24.51,0,*7C
1508076055.4,17506,16.44,74908.3,8.71,-24.05,-24.87,0,*7C
1508076056.65,17507,16.44,74908.5,8.69,-24.11,-25.03,0,*7C
1508076057.91,17508,16.44,74904.0,8.67,-23.89,-24.71,0,*7F
1508076059.14,17509,16.44,74910.8,8.67,-23.75,-24.57,0,*79
1508076060.39,17510,16.44,74908.8,8.67,-23.53,-24.35,0,*71
1508076061.64,17511,16.44,74906.8,8.67,-23.89,-24.71,0,*77
1508076062.89,17512,16.44,74910.8,8.67,-24.11,-24.93,0,*7E
1508076064.13,17513,16.44,74914.0,8.65,-24.41,-25.39,0,*79
1508076065.36,17514,16.44,74914.5,8.63,-25.61,-26.45,0,*73
1508076066.6,17515,16.44,74912.3,8.63,-25.29,-26.23,0,*7E
1508076067.86,17516,16.44,74912.5,8.63,-23.95,-24.77,0,*7F
1508076069.11,17517,16.44,74908.0,8.59,-23.75,-24.83,0,*72
1508076070.32,17518,16.44,74898.0,8.57,-24.57,-25.49,0,*73
1508076071.55,17519,16.44,74890.8,8.57,-23.75,-24.67,0,*78
1508076072.8,17520,16.44,74888.3,8.57,-23.95,-24.67,0,*7C
1508076074.05,17521,16.44,74886.8,8.59,-23.65,-24.47,0,*7E
1508076075.32,17522,16.44,74888.5,8.59,-22.73,-23.53,0,*79
1508076076.54,17523,16.44,74892.5,8.57,-22.93,-23.65,0,*7D
1508076077.76,17524,16.44,74892.8,8.57,-23.89,-24.67,0,*75
1508076079.0,17525,16.44,74894.5,8.57,-24.41,-25.23,0,*76
1508076080.28,17526,16.44,74892.0,8.59,-24.21,-25.03,0,*7F
1508076081.52,17527,16.44,74890.8,8.57,-23.29,-24.11,0,*7D
1508076082.78,17528,16.44,74894.0,8.57,-22.47,-23.23,0,*7D
1508076084.04,17529,16.44,74892.0,8.63,-21.87,-22.67,0,*75
1508076085.27,17530,16.44,74894.3,8.59,-21.77,-22.57,0,*78
1508076086.52,17531,16.44,74900.8,8.59,-21.83,-22.67,0,*71
1508076087.77,17532,16.44,74898.8,8.63,-22.83,-23.65,0,*7B
1508076089.02,17533,16.44,74888.8,8.63,-22.37,-23.03,0,*75
1508076090.26,17534,16.44,74894.5,8.65,-21.87,-22.63,0,*7B
1508076091.51,17535,16.44,74900.3,8.63,-21.63,-22.47,0,*70
1508076092.74,17536,16.44,74902.0,8.65,-21.57,-22.37,0,*75
1508076093.97,17537,16.44,74890.3,8.65,-21.87,-22.67,0,*7C
1508076095.2,17538,16.44,74900.3,8.67,-22.27,-22.97,0,*77
1508076096.43,17539,16.44,74914.0,8.67,-22.11,-22.83,0,*76
1508076097.68,17540,16.44,74910.3,8.67,-21.47,-22.17,0,*75
1508076098.92,17541,16.44,74912.8,8.69,-22.17,-23.13,0,*79
1508076100.15,17542,16.44,74912.0,8.69,-22.77,-23.59,0,*72
1508076101.38,17543,16.44,74908.5,8.69,-22.17,-22.93,0,*72
1508076102.64,17544,16.44,74906.3,8.69,-22.77,-23.53,0,*7E
1508076103.91,17545,16.44,74900.5,8.71,-21.97,-22.73,0,*78
1508076105.1,17546,16.44,74900.8,8.73,-21.43,-22.07,0,*73
1508076106.32,17547,16.44,74906.0,8.71,-21.63,-22.37,0,*71
1508076107.54,17548,16.44,74906.5,8.73,-21.27,-22.07,0,*7F
1508076108.77,17549,16.5,74904.0,8.73,-22.57,-23.33,0,*7C
1508076109.99,17550,16.44,74934.0,8.73,-22.53,-23.29,0,*7B
1508076111.22,17551,16.44,74926.5,8.71,-21.47,-22.27,0,*71
1508076112.42,17552,16.44,74924.8,8.73,-21.93,-22.67,0,*7D
1508076113.62,17553,16.44,74926.0,8.73,-21.93,-22.83,0,*76
1508076114.86,17554,16.44,74928.3,8.75,-21.57,-22.41,0,*71
1508076116.11,17555,16.44,74922.3,8.75,-21.43,-22.17,0,*76
1508076117.37,17556,16.44,74926.5,8.77,-21.17,-21.87,0,*7C
1508076118.66,17557,16.44,74926.0,8.77,-21.53,-22.17,0,*77
1508076119.88,17558,16.44,74932.5,8.79,-21.33,-22.11,0,*76
1508076121.08,17559,16.5,74934.0,8.79,-21.47,-22.37,0,*70
1508076122.31,17560,16.44,74928.8,8.79,-21.67,-22.57,0,*7E
1508076123.57,17561,16.44,74930.0,8.79,-21.67,-22.73,0,*79
1508076124.76,17562,16.44,74924.0,8.79,-22.87,-23.75,0,*70
1508076126.02,17563,16.44,74922.5,8.81,-22.37,-23.19,0,*77
1508076127.25,17564,16.44,74924.3,8.79,-21.77,-22.47,0,*7A
1508076128.49,17565,16.44,74922.3,8.79,-22.47,-23.43,0,*7E
1508076129.74,17566,16.44,74918.0,8.77,-23.39,-24.25,0,*7C
1508076130.97,17567,16.44,74910.5,8.77,-23.43,-24.35,0,*71
1508076132.22,17568,16.44,74916.0,8.77,-23.59,-24.41,0,*76
1508076133.45,17569,16.44,74908.8,8.75,-22.93,-23.75,0,*72
1508076134.68,17570,16.44,74906.5,8.77,-22.97,-23.89,0,*7F
1508076135.9,17571,16.44,74902.0,8.75,-23.09,-23.79,0,*75
1508076137.15,17572,16.44,74892.0,8.75,-22.83,-23.65,0,*78
1508076138.37,17573,16.44,74900.8,8.75,-22.53,-23.39,0,*7D
1508076139.62,17574,16.44,74908.3,8.75,-22.97,-23.65,0,*7B
1508076140.85,17575,16.44,74910.5,8.73,-22.57,-23.33,0,*73
1508076142.05,17576,16.44,74906.3,8.73,-21.93,-22.67,0,*7B
1508076143.29,17577,16.44,74912.0,8.75,-21.67,-22.41,0,*73
1508076144.57,17578,16.44,74920.3,8.75,-21.53,-22.31,0,*7C
1508076145.86,17579,16.44,74928.3,8.77,-21.67,-22.31,0,*78
1508076147.11,17580,16.44,74926.0,8.79,-21.83,-22.73,0,*7C
1508076148.3,17581,16.44,74914.8,8.79,-22.07,-22.87,0,*79
1508076149.51,17582,16.44,74910.8,8.79,-21.93,-22.63,0,*7E
1508076150.71,17583,16.44,74912.5,8.79,-21.77,-22.57,0,*72
1508076151.97,17584,16.44,74912.3,8.77,-21.87,-22.67,0,*77
1508076153.22,17585,16.44,74918.0,8.77,-21.97,-22.67,0,*77
1508076154.45,17586,16.44,74918.3,8.79,-21.67,-22.37,0,*70
1508076155.7,17587,16.44,74920.3,8.81,-21.33,-22.11,0,*73
1508076156.9,17588,16.44,74924.0,8.79,-21.47,-22.37,0,*7C
1508076158.13,17589,16.44,74930.3,8.81,-21.93,-22.63,0,*72
1508076159.4,17590,16.44,74926.8,8.81,-22.73,-23.99,0,*73
1508076160.68,17591,16.44,74922.5,8.81,-24.41,-25.29,0,*78
1508076161.93,17592,16.5,74922.5,8.79,-23.85,-24.67,0,*78
1508076163.18,17593,16.5,74926.3,8.75,-23.79,-24.71,0,*71
1508076164.44,17594,16.44,74926.0,8.75,-24.21,-24.93,0,*70
1508076165.68,17595,16.44,74924.8,8.75,-23.23,-24.05,0,*7B
1508076166.93,17596,16.44,74924.3,8.71,-22.93,-23.69,0,*7B
1508076168.17,17597,16.44,74928.3,8.73,-23.19,-24.15,0,*77
1508076169.4,17598,16.5,74932.8,8.73,-22.97,-23.85,0,*71
1508076170.62,17599,16.44,74926.8,8.73,-23.03,-23.79,0,*7F
1508076171.85,17600,16.44,74922.5,8.71,-22.93,-23.75,0,*7A
1508076173.1,17601,16.44,74918.8,8.67,-23.59,-24.41,0,*7B
1508076174.33,17602,16.5,74920.0,8.67,-24.35,-25.23,0,*70
1508076175.59,17603,16.44,74910.0,8.67,-23.95,-24.77,0,*7C
1508076176.84,17604,16.44,74914.8,8.67,-23.89,-24.87,0,*79
1508076178.09,17605,16.44,74904.8,8.67,-23.95,-24.77,0,*7A
1508076179.32,17606,16.44,74902.5,8.63,-23.59,-24.47,0,*7E
1508076180.59,17607,16.44,74898.8,8.63,-23.33,-24.15,0,*74
1508076181.85,17608,16.44,74900.8,8.63,-23.59,-24.25,0,*74
1508076183.08,17609,16.44,74902.5,8.63,-23.59,-24.31,0,*70
1508076184.31,17610,16.44,74904.3,8.59,-24.61,-25.49,0,*73
1508076185.55,17611,16.44,74906.0,8.57,-24.25,-25.19,0,*79
1508076186.76,17612,16.44,74900.8,8.57,-23.69,-24.57,0,*7E
1508076187.99,17613,16.44,74896.0,8.57,-23.95,-24.77,0,*7E
1508076189.25,17614,16.44,74886.8,8.53,-23.33,-24.25,0,*76
1508076190.49,17615,16.44,74884.0,8.55,-23.23,-24.05,0,*72
1508076191.72,17616,16.44,74884.8,8.55,-22.83,-23.59,0,*74
1508076192.94,17617,16.44,74894.0,8.53,-22.67,-23.49,0,*78
1508076194.17,17618,16.5,74898.3,8.55,-22.11,-22.83,0,*77
1508076195.36,17619,16.44,74910.5,8.53,-22.07,-22.83,0,*77
1508076196.59,17620,16.5,74912.3,8.55,-22.41,-23.13,0,*71
1508076197.87,17621,16.44,74916.0,8.55,-22.47,-23.23,0,*75
1508076199.1,17622,16.44,74924.3,8.57,-21.63,-22.31,0,*73
1508076200.32,17623,16.44,74922.3,8.59,-22.07,-22.87,0,*70
1508076201.54,17624,16.5,74924.5,8.57,-23.49,-24.35,0,*7D
1508076202.79,17625,16.44,74920.8,8.59,-24.05,-24.87,0,*74
1508076204.01,17626,16.44,74918.8,8.55,-25.39,-26.23,0,*79
1508076205.27,17627,16.44,74910.3,8.53,-25.29,-26.13,0,*7C
1508076206.49,17628,16.44,74914.0,8.51,-24.57,-25.23,0,*79
1508076207.73,17629,16.44,74908.5,8.51,-24.31,-25.09,0,*70
1508076209.0,17630,16.5,74912.8,8.47,-23.29,-23.95,0,*72
1508076210.24,17631,16.44,74908.0,8.47,-22.87,-23.53,0,*7C
1508076211.53,17632,16.44,74904.8,8.47,-24.21,-25.03,0,*76
1508076212.75,17633,16.5,74910.8,8.47,-23.89,-24.57,0,*72
1508076213.97,17634,16.44,74912.3,8.47,-22.87,-23.59,0,*73
1508076215.21,17635,16.44,74912.5,8.47,-22.27,-22.93,0,*7F
1508076216.43,17636,16.44,74916.8,8.47,-22.41,-23.09,0,*7E
1508076217.69,17637,16.44,74920.3,8.47,-21.87,-22.63,0,*7B
1508076218.97,17638,16.44,74918.0,8.47,-21.97,-22.73,0,*74
1508076220.22,17639,16.5,74920.8,8.51,-21.93,-22.77,0,*72
1508076221.47,17640,16.44,74920.3,8.51,-22.37,-23.03,0,*73
1508076222.72,17641,16.5,74922.5,8.49,-22.73,-23.53,0,*7E
1508076223.94,17642,16.44,74918.0,8.49,-22.87,-23.85,0,*7D
1508076225.19,17643,16.44,74918.5,8.51,-22.07,-22.77,0,*71
1508076226.44,17644,16.44,74918.3,8.51,-22.17,-22.97,0,*79
1508076227.66,17645,16.5,74918.5,8.51,-22.03,-22.83,0,*78
1508076228.92,17646,16.5,74914.8,8.51,-21.73,-22.47,0,*77
1508076230.2,17647,16.44,74914.3,8.51,-21.53,-22.21,0,*74
1508076231.47,17648,16.44,74916.0,8.55,-21.23,-21.97,0,*76
1508076232.75,17649,16.5,74918.3,8.55,-21.33,-21.97,0,*76
1508076233.97,17650,16.5,74918.3,8.57,-21.33,-22.03,0,*72
1508076235.19,17651,16.44,74910.8,8.59,-21.43,-22.07,0,*7E
1508076236.41,17652,16.44,74918.8,8.59,-21.63,-22.37,0,*7C
1508076237.64,17653,16.44,74914.0,8.57,-21.63,-22.31,0,*75
1508076238.89,17654,16.5,74912.8,8.59,-21.33,-22.07,0,*7C
1508076240.14,17655,16.5,74916.3,8.59,-21.57,-22.27,0,*7D
1508076241.37,17656,16.44,74914.0,8.59,-21.77,-22.57,0,*7B
1508076242.6,17657,16.44,74912.5,8.63,-21.39,-22.03,0,*78
1508076243.8,17658,16.44,74912.3,8.65,-21.09,-21.77,0,*72
1508076245.03,17659,16.44,74916.8,8.65,-21.23,-22.03,0,*7B
1508076246.24,17660,16.44,74914.3,8.65,-21.13,-21.93,0,*78
1508076247.45,17661,16.44,74914.0,8.67,-21.09,-21.73,0,*7E
1508076248.65,17662,16.5,74914.5,8.69,-20.73,-21.39,0,*71
1508076249.87,17663,16.44,74914.0,8.67,-21.09,-21.73,0,*7C
1508076251.11,17664,16.44,74914.0,8.69,-21.47,-22.17,0,*7E
1508076252.38,17665,16.44,74914.8,8.71,-21.33,-21.97,0,*7E
1508076253.62,17666,16.5,74912.3,8.71,-21.43,-22.21,0,*74
1508076254.85,17667,16.44,74912.3,8.71,-21.47,-22.27,0,*77
1508076256.08,17668,16.44,74910.5,8.73,-21.47,-22.17,0,*79
1508076257.29,17669,16.44,74906.8,8.71,-21.63,-22.37,0,*7E
1508076258.55,17670,16.44,74904.3,8.71,-21.53,-22.37,0,*75
1508076259.74,17671,16.44,74906.0,8.73,-21.63,-22.37,0,*75
1508076260.93,17672,16.5,74910.8,8.73,-21.43,-22.07,0,*77
1508076262.16,17673,16.44,74912.3,8.73,-21.63,-22.31,0,*71
1508076263.41,17674,16.5,74912.5,8.73,-21.57,-22.47,0,*70
1508076264.66,17675,16.5,74912.8,8.75,-22.27,-23.29,0,*7A
1508076265.9,17676,16.5,74910.0,8.75,-21.97,-22.53,0,*7D
1508076267.15,17677,16.5,74916.3,8.75,-21.33,-22.11,0,*74
1508076268.38,17678,16.44,74916.8,8.77,-21.43,-22.27,0,*7B
1508076269.66,17679,16.5,74916.3,8.75,-21.23,-21.87,0,*77
1508076270.9,17680,16.44,74916.0,8.77,-21.57,-22.41,0,*79
1508076272.16,17681,16.44,74914.0,8.77,-21.53,-22.27,0,*7C
1508076273.42,17682,16.44,74914.3,8.77,-21.67,-22.41,0,*78
1508076274.64,17683,16.44,74914.0,8.79,-21.47,-22.21,0,*73
1508076275.87,17684,16.44,74914.0,8.77,-22.03,-22.93,0,*70
1508076277.11,17685,16.5,74912.8,8.75,-22.03,-22.77,0,*79
1508076278.34,17686,16.44,74912.5,8.79,-21.47,-22.21,0,*76
1508076279.63,17687,16.44,74918.8,8.77,-21.53,-22.31,0,*7D
1508076280.82,17688,16.5,74922.3,8.79,-21.63,-22.41,0,*78
1508076282.03,17689,16.5,74918.0,8.79,-22.57,-23.39,0,*73
1508076283.23,17690,16.5,74912.0,8.79,-22.57,-23.39,0,*7B
1508076284.49,17691,16.44,74904.5,8.77,-22.31,-22.97,0,*71
1508076285.74,17692,16.5,74912.8,8.75,-22.17,-22.83,0,*71
1508076286.94,17693,16.5,74912.3,8.79,-21.77,-22.41,0,*77
1508076288.2,17694,16.5,74912.8,8.79,-21.83,-22.47,0,*7D
1508076289.43,17695,16.44,74914.5,8.79,-21.33,-21.93,0,*7D
1508076290.68,17696,16.5,74912.0,8.81,-21.53,-22.27,0,*73
1508076291.91,17697,16.44,74912.3,8.79,-21.67,-22.27,0,*72
1508076293.14,17698,16.5,74912.3,8.81,-21.39,-22.11,0,*74
1508076294.34,17699,16.5,74912.0,8.79,-21.47,-22.11,0,*7B
1508076295.57,17700,16.5,74916.3,8.79,-21.17,-21.83,0,*77
1508076296.82,17701,16.44,74912.8,8.81,-21.47,-22.21,0,*7F
1508076298.04,17702,16.5,74916.5,8.81,-21.47,-22.11,0,*7F
1508076299.26,17703,16.44,74912.5,8.81,-21.63,-22.37,0,*7C
1508076300.54,17704,16.44,74912.5,8.81,-21.27,-21.97,0,*72
1508076301.79,17705,16.44,74916.0,8.81,-21.33,-22.07,0,*7C
1508076303.01,17706,16.5,74916.8,8.87,-21.17,-21.97,0,*75
1508076304.26,17707,16.5,74918.0,8.85,-21.63,-22.31,0,*7A
1508076305.51,17708,16.5,74918.5,8.85,-21.43,-22.17,0,*73
1508076306.76,17709,16.44,74920.3,8.89,-21.17,-21.97,0,*74
1508076307.98,17710,16.5,74922.8,8.87,-21.43,-22.17,0,*78
1508076309.21,17711,16.44,74914.5,8.87,-21.53,-22.27,0,*7B
1508076310.43,17712,16.5,74922.0,8.87,-21.53,-22.27,0,*78
1508076311.66,17713,16.44,74918.5,8.87,-21.39,-22.17,0,*76
1508076312.88,17714,16.5,74918.3,8.87,-21.87,-22.67,0,*73
1508076314.11,17715,16.5,74920.0,8.87,-21.53,-22.27,0,*7F
1508076315.3,17716,16.5,74920.0,8.87,-21.43,-22.27,0,*7D
1508076316.52,17717,16.5,74922.0,8.87,-22.53,-23.29,0,*71
1508076317.74,17718,16.44,74914.3,8.87,-22.53,-23.29,0,*7E
1508076319.02,17719,16.44,74916.0,8.85,-23.03,-23.69,0,*7D
1508076320.24,17720,16.5,74918.3,8.87,-22.57,-23.33,0,*7A
1508076321.44,17721,16.5,74918.8,8.87,-22.63,-23.43,0,*7B
1508076322.68,17722,16.5,74922.5,8.85,-22.67,-23.33,0,*79
1508076323.9,17723,16.5,74920.0,8.87,-22.87,-23.65,0,*77
1508076325.15,17724,16.44,74916.5,8.85,-21.87,-22.41,0,*76
1508076326.37,17725,16.5,74912.8,8.85,-21.93,-22.83,0,*7C
1508076327.62,17726,16.44,74914.0,8.85,-22.07,-22.73,0,*7E
1508076328.87,17727,16.44,74906.8,8.85,-21.47,-22.17,0,*7A
1508076330.09,17728,16.5,74914.0,8.85,-21.73,-22.37,0,*70
1508076331.32,17729,16.5,74916.0,8.87,-21.09,-21.87,0,*76
1508076332.56,17730,16.5,74918.0,8.87,-21.27,-21.97,0,*73
1508076333.78,17731,16.5,74914.5,8.87,-21.43,-22.17,0,*7B
1508076335.04,17732,16.5,74914.5,8.87,-21.53,-22.31,0,*7D
1508076336.24,17733,16.5,74914.3,8.87,-21.73,-22.53,0,*7A
1508076337.46,17734,16.5,74912.3,8.87,-22.31,-23.09,0,*76
1508076338.69,17735,16.5,74910.8,8.87,-22.37,-23.23,0,*79
1508076339.94,17736,16.44,74910.0,8.89,-21.87,-22.37,0,*78
1508076341.19,17737,16.5,74914.3,8.89,-21.53,-22.27,0,*71
1508076342.43,17738,16.5,74914.0,8.89,-21.57,-22.37,0,*7B
1508076343.68,17739,16.5,74914.5,8.89,-22.93,-23.65,0,*77
1508076344.91,17740,16.5,74910.5,8.89,-22.27,-22.97,0,*7A
1508076346.14,17741,16.5,74912.3,8.87,-22.77,-23.43,0,*78
1508076347.33,17742,16.5,74908.5,8.87,-23.13,-23.89,0,*7E
1508076348.58,17743,16.5,74906.5,8.85,-22.37,-23.03,0,*78
1508076349.8,17744,16.44,74906.3,8.87,-21.83,-22.53,0,*75
1508076351.01,17745,16.5,74902.3,8.87,-22.37,-23.09,0,*76
1508076352.23,17746,16.5,74904.8,8.87,-21.57,-22.27,0,*7D
1508076353.45,17747,16.5,74908.0,8.85,-21.43,-22.07,0,*79
1508076354.65,17748,16.5,74906.5,8.87,-22.37,-23.09,0,*7B
1508076355.88,17749,16.5,74910.3,8.87,-21.73,-22.47,0,*72
1508076357.1,17750,16.5,74908.5,8.87,-21.97,-22.67,0,*72
1508076358.35,17751,16.5,74914.3,8.87,-21.23,-21.87,0,*71
1508076359.6,17752,16.5,74908.3,8.89,-21.17,-21.83,0,*7F
1508076360.82,17753,16.5,74906.8,8.89,-21.73,-22.37,0,*70
1508076362.07,17754,16.5,74904.8,8.89,-21.87,-22.53,0,*7E
1508076363.26,17755,16.5,74906.5,8.91,-21.39,-22.07,0,*72
1508076364.52,17756,16.5,74906.0,8.91,-20.99,-21.67,0,*7F
1508076365.74,17757,16.5,74908.3,8.91,-20.89,-21.53,0,*78
1508076366.96,17758,16.44,74906.3,8.91,-21.93,-22.73,0,*7C
1508076368.22,17759,16.5,74914.0,8.93,-21.23,-21.93,0,*79
1508076369.44,17760,16.5,74910.8,8.93,-21.39,-22.07,0,*76
1508076370.68,17761,16.44,74912.5,8.93,-21.33,-22.07,0,*7D
1508076371.87,17762,16.5,74912.0,8.95,-21.13,-21.73,0,*7A
1508076373.07,17763,16.5,74914.0,8.95,-21.13,-21.93,0,*75
1508076374.26,17764,16.5,74918.5,8.95,-21.17,-22.03,0,*7C
1508076375.49,17765,16.5,74922.5,8.95,-21.87,-22.67,0,*76
1508076376.74,17766,16.44,74918.5,8.95,-23.03,-23.85,0,*76
1508076377.98,17767,16.5,74912.3,8.95,-23.23,-23.99,0,*78
1508076379.26,17768,16.5,74906.3,8.93,-21.83,-22.47,0,*7B
1508076380.48,17769,16.5,74900.5,8.95,-21.33,-21.93,0,*7D
1508076381.75,17770,16.5,74900.0,8.93,-21.33,-22.21,0,*79
1508076382.97,17771,16.5,74908.3,8.95,-21.33,-21.93,0,*74
1508076384.22,17772,16.5,74924.0,8.95,-21.27,-22.17,0,*7D
1508076385.47,17773,16.5,74924.8,8.97,-21.67,-22.63,0,*79
1508076386.72,17774,16.5,74916.0,8.97,-22.11,-22.77,0,*79
1508076387.96,17775,16.5,74914.3,8.95,-21.57,-22.21,0,*78
1508076389.22,17776,16.5,74918.3,8.97,-21.67,-22.63,0,*7C
1508076390.44,17777,16.5,74914.8,8.97,-22.37,-22.97,0,*70
1508076391.69,17778,16.5,74914.5,8.97,-22.21,-23.09,0,*7E
1508076392.92,17779,16.5,74920.3,8.97,-22.97,-23.75,0,*79
1508076394.13,17780,16.5,74922.5,8.95,-22.73,-23.39,0,*7F
1508076395.35,17781,16.5,74918.0,8.95,-22.73,-23.39,0,*7E
1508076396.55,17782,16.5,74918.0,8.95,-21.77,-22.53,0,*77
1508076397.74,17783,16.5,74918.0,8.95,-21.73,-22.37,0,*70
1508076398.93,17784,16.5,74918.3,8.95,-21.77,-22.41,0,*72
1508076400.22,17785,16.5,74916.3,8.97,-21.53,-22.31,0,*70
1508076401.46,17786,16.5,74922.3,8.93,-22.27,-23.03,0,*77
1508076402.69,17787,16.5,74922.0,8.95,-22.17,-22.83,0,*7A
1508076403.91,17788,16.5,74922.5,8.95,-22.57,-23.33,0,*7B
1508076405.11,17789,16.5,74918.0,8.95,-22.41,-23.13,0,*7F
1508076406.33,17790,16.5,74922.8,8.95,-22.97,-23.65,0,*7D
1508076407.57,17791,16.5,74920.5,8.95,-23.33,-23.99,0,*70
1508076408.81,17792,16.5,74920.5,8.93,-22.73,-23.59,0,*7C
1508076410.06,17793,16.5,74922.0,8.93,-24.05,-24.83,0,*7A
1508076411.34,17794,16.5,74918.5,8.89,-24.87,-25.71,0,*70
1508076412.56,17795,16.5,74922.3,8.89,-23.59,-24.31,0,*70
1508076413.79,17796,16.5,74918.0,8.87,-22.17,-22.83,0,*79
1508076414.99,17797,16.5,74918.3,8.87,-22.37,-23.09,0,*79
1508076416.21,17798,16.5,74918.5,8.87,-21.87,-22.53,0,*70
1508076417.43,17799,16.44,74912.0,8.91,-21.39,-21.97,0,*78
1508076418.65,17800,16.5,74916.3,8.91,-21.39,-21.97,0,*77
1508076419.9,17801,16.5,74918.3,8.89,-21.23,-22.03,0,*7A
1508076421.12,17802,16.5,74918.0,8.93,-21.77,-22.41,0,*75
1508076422.36,17803,16.5,74920.5,8.93,-21.39,-22.21,0,*78
1508076423.62,17804,16.5,74920.8,8.91,-22.21,-23.03,0,*76
1508076424.86,17805,16.5,74912.8,8.91,-22.47,-23.29,0,*7F
1508076426.09,17806,16.5,74912.5,8.91,-22.21,-22.93,0,*7C
1508076427.31,17807,16.5,74908.8,8.91,-21.67,-22.41,0,*73
1508076428.59,17808,16.5,74910.0,8.93,-21.67,-22.47,0,*78
1508076429.84,17809,16.5,74918.8,8.93,-21.83,-22.57,0,*72
1508076431.06,17810,16.5,74912.0,8.95,-21.27,-22.03,0,*73
1508076432.28,17811,16.5,74916.0,8.93,-21.77,-22.41,0,*77
1508076433.5,17812,16.5,74916.3,8.95,-21.57,-22.27,0,*70
1508076434.72,17813,16.5,74916.8,8.95,-21.47,-22.21,0,*76
1508076435.91,17814,16.5,74918.3,8.95,-21.73,-22.41,0,*70
1508076437.16,17815,16.5,74914.3,8.97,-21.57,-22.37,0,*74
1508076438.4,17816,16.5,74912.3,8.97,-22.03,-22.77,0,*71
1508076439.68,17817,16.5,74912.8,8.97,-21.67,-22.31,0,*73
1508076440.91,17818,16.5,74916.0,8.97,-22.37,-23.09,0,*70
1508076442.15,17819,16.5,74916.0,8.97,-21.97,-22.63,0,*75
1508076443.42,17820,16.5,74918.3,8.97,-21.57,-22.21,0,*75
1508076444.67,17821,16.5,74916.0,8.97,-21.83,-22.63,0,*7B
1508076445.92,17822,16.5,74924.5,8.97,-22.31,-23.09,0,*7F
1508076447.18,17823,16.5,74918.5,8.97,-23.75,-24.41,0,*74
1508076448.39,17824,16.5,74918.3,8.95,-23.69,-24.47,0,*7A
1508076449.62,17825,16.5,74914.5,8.95,-24.21,-24.97,0,*7D
1508076450.87,17826,16.5,74914.5,8.93,-24.21,-24.97,0,*78
1508076452.09,17827,16.5,74912.3,8.89,-22.93,-23.59,0,*78
1508076453.34,17828,16.5,74910.8,8.89,-22.63,-23.23,0,*75
1508076454.59,17829,16.5,74916.0,8.89,-21.87,-22.53,0,*7B
1508076455.79,17830,16.5,74912.5,8.91,-21.63,-22.27,0,*73
1508076457.02,17831,16.5,74914.8,8.91,-21.77,-22.47,0,*71
1508076458.27,17832,16.5,74916.0,8.91,-21.83,-22.31,0,*78
1508076459.5,17833,16.5,74914.0,8.93,-21.93,-22.57,0,*7A
1508076460.69,17834,16.5,74912.8,8.95,-21.47,-22.27,0,*75
1508076461.92,17835,16.5,74914.0,8.95,-21.27,-21.93,0,*7E
1508076463.19,17836,16.5,74914.8,8.93,-21.03,-21.83,0,*7C
1508076464.41,17837,16.5,74918.0,8.95,-21.33,-22.03,0,*73
1508076465.63,17838,16.5,74918.8,8.95,-21.27,-22.07,0,*7D
1508076466.84,17839,16.5,74918.3,8.97,-21.09,-21.73,0,*72
1508076468.09,17840,16.5,74922.3,8.97,-20.93,-21.57,0,*78
1508076469.36,17841,16.5,74918.0,8.97,-21.27,-21.97,0,*7B
1508076470.55,17842,16.5,74916.8,8.99,-21.39,-22.11,0,*74
1508076471.78,17843,16.5,74922.5,8.99,-21.73,-22.47,0,*78
1508076472.97,17844,16.5,74922.3,8.99,-21.73,-22.37,0,*78
1508076474.22,17845,16.5,74916.3,8.99,-21.67,-22.31,0,*7A
1508076475.45,17846,16.5,74918.5,8.99,-22.17,-22.93,0,*75
1508076476.67,17847,16.5,74918.0,8.99,-22.77,-23.59,0,*75
1508076477.89,17848,16.5,74912.8,8.99,-23.43,-24.15,0,*73
1508076479.16,17849,16.5,74918.5,8.97,-23.49,-24.15,0,*76
1508076480.4,17850,16.5,74924.5,8.97,-23.19,-23.89,0,*79
1508076481.65,17851,16.5,74920.0,8.97,-24.87,-25.61,0,*78
1508076482.91,17852,16.5,74914.3,8.93,-24.35,-25.03,0,*72
1508076484.18,17853,16.5,74914.3,8.93,-24.15,-24.87,0,*7C
1508076485.41,17854,16.5,74906.5,8.89,-24.47,-25.23,0,*78
1508076486.63,17855,16.5,74908.0,8.89,-23.79,-24.61,0,*74
1508076487.85,17856,16.5,74908.0,8.89,-23.09,-23.89,0,*71
1508076489.07,17857,16.5,74910.3,8.87,-22.67,-23.29,0,*7D
1508076490.27,17858,16.5,74910.5,8.87,-22.27,-23.09,0,*74
1508076491.52,17859,16.5,74914.0,8.87,-21.87,-22.77,0,*74
1508076492.8,17860,16.5,74914.8,8.89,-22.47,-23.23,0,*7F
1508076494.03,17861,16.5,74916.3,8.89,-23.75,-24.47,0,*7B
1508076495.3,17862,16.5,74914.3,8.85,-23.33,-24.11,0,*75
1508076496.53,17863,16.5,74914.3,8.87,-22.77,-23.43,0,*77
1508076497.8,17864,16.5,74912.3,8.85,-23.49,-24.15,0,*7A
1508076499.06,17865,16.5,74922.8,8.85,-23.49,-24.15,0,*7B
1508076500.31,17866,16.5,74922.3,8.81,-23.85,-24.57,0,*7A
1508076501.59,17867,16.5,74906.5,8.81,-24.15,-25.03,0,*75
1508076502.85,17868,16.5,74898.3,8.79,-23.33,-24.21,0,*7F
1508076504.05,17869,16.5,74896.8,8.79,-22.93,-23.59,0,*7D
1508076505.31,17870,16.5,74906.5,8.79,-22.47,-23.23,0,*71
1508076506.56,17871,16.5,74906.5,8.79,-22.21,-23.03,0,*72